Home > Weather > Gmünd > Past weeks

Flag for Austria Past Weather in Gmünd, Lower Austria, Austria — Yesterday and Last 2 Weeks

Now
62 °F

Cool.


Feels Like: 62 °F
Forecast: 57 / 71 °F
Wind: 3 mph from North

Location: Retz

Current Time: Aug 25, 2016 at 5:02:34 AM

Latest Report: Aug 25, 2016 at 4:00 AM


Visibility: N/A

Pressure: 30.23 "Hg

Humidity: 79%

Dew Point: 56 °F

Location of GmündLocation

Past Weather in Gmünd — Graph

°F

Gmünd Temperature Yesterday

Maximum temperature yesterday: 79 °F (at 4:00 PM)
Minimum temperature yesterday: 61 °F (at 2:00 AM)
Average temperature yesterday: 70 °F

High & Low Weather Summary for the Past Weeks

 TemperatureHumidityPressure
High82 °F (Aug 14, 3:00 PM)98% (Aug 13, 7:00 AM)30.36 "Hg (Aug 13, 7:00 AM)
Low48 °F (Aug 11, 5:00 AM)31% (Aug 18, 3:00 PM)29.76 "Hg (Aug 18, 6:00 PM)
Average65 °F69%30.09 "Hg
* Reported Aug 10 4:00 AM — Aug 25 4:00 AM, Gmünd, Weather by CustomWeather, © 2016

Note: Actual official high and low records may vary slightly from our data, if they occured in-between our weather recording intervals... More about our weather records

Advertising

Gmünd Weather History for the Previous 24 Hours

Scroll right to see more
 ConditionsComfort  
Time TempWeatherWind HumidityBarometerVisibility
4:00 AM
Thu, Aug 25
62 °FCool.3 mph79%30.23 "HgN/A
3:00 AM63 °FMild.3 mph77%30.24 "HgN/A
2:00 AM63 °FMild.2 mph76%30.24 "HgN/A
1:00 AM64 °FMild.2 mph73%30.25 "HgN/A
12:00 AM65 °FMild.3 mph70%30.25 "HgN/A
11:00 PM
Wed, Aug 24
68 °FMild.3 mph64%30.24 "HgN/A
10:00 PM68 °FMild.2 mph64%30.24 "HgN/A
9:00 PM70 °FMild.1 mph60%30.23 "HgN/A
8:00 PM71 °FClear.2 mph61%30.22 "Hg14 mi
7:00 PM75 °FMild.3 mph53%30.21 "HgN/A
6:00 PM77 °FMild.2 mph53%30.21 "HgN/A
5:00 PM78 °FWarm.2 mph49%30.21 "HgN/A
4:00 PM79 °FWarm.3 mph50%30.22 "HgN/A
3:00 PM78 °FWarm.3 mph52%30.23 "HgN/A
2:00 PM77 °FPassing clouds.3 mph51%30.24 "Hg16 mi
1:00 PM76 °FMild.3 mph55%30.26 "HgN/A
12:00 PM74 °FMild.2 mph64%30.28 "HgN/A
11:00 AM71 °FMild.2 mph67%30.29 "HgN/A
10:00 AM71 °FMild.2 mph66%30.29 "HgN/A
9:00 AM69 °FMild.1 mph72%30.30 "HgN/A
8:00 AM64 °FPassing clouds.No wind81%30.31 "Hg9 mi
7:00 AM62 °FPassing clouds.2 mph81%30.30 "Hg8 mi
6:00 AM63 °FMild.3 mph78%30.28 "HgN/A
5:00 AM63 °FMild.5 mph79%30.28 "HgN/A
Weather by CustomWeather, © 2016

See weather overviewHow to use our weather pages